Showing default

PUNCH-WFI01, 63179

Orbit data source: Space-Track

PUNCH-WFI01, 63179 is an American payload satellite in SSO that was launched on Wed, 12 Mar 2025 UTC via an FALCON 9 launch vehicle from the Air Force Western Test Range (AFWTR). Payload-class satellites include a variety of spacecraft equipped with specific instruments for various scientific and technological missions. These include communications satellites like Starlink; space stations such as the ISS; scientific satellites like the Hubble; Earth observation satellites from companies like Planet Labs, Umbra, and HawkEye 360; GPS; miniature CubeSats for education and research; and military/defense satellites.

Loading next visibility...
Identifier
63179, 2025-047B
Orbit
SSO
Country
Flag of USUS
Related business
Manufacturer
SWRI
Mission
Operational Civil Astronomy
Bus & Motor
PUNCH, Unknown motor
Mass
64 kg wet, 64 kg dry
Launch date (UTC)
2025-03-12 (6 months ago)
Launch vehicle
FALCON 9
Launch site
Air Force Western Test Range (AFWTR)
Object type
Payload
Rocket body
Debris
Shape & HBR
Box + 1 Pan, 0.5 m
Radar Cross Section
0.625 m², Medium (>0.1 m² and < 1m²)

Expand to show TLE details & history
Last TLE update: 21 hours ago

TLE from 21 hours ago
0 PUNCH-WFI01
1 63179U 25047B   25260.59224491  .00000576  00000-0  95620-4 0  9999
2 63179  97.9579  85.9179 0008658 341.1157  18.9729 14.73786831 27904
Epoch: 2025-09-17T14:12Z
TLE epoch observation values (Epoch: 2025-09-17T14:12:49.96Z)
Latitude
-0.00001°
Longitude
-124.05625°
Altitude
646.262 km
Speed
7.538 km/s
True Right ascension
05h 43m 40s
True Declination
0° 00' 00"
Sunlit
Object was in daylight at epoch
Visualization orbit readout
Latitude
Unknown
Longitude
Unknown
Altitude
Unknown
Speed
Unknown
Apparent Right ascension
Unknown
Apparent Declination
Unknown
Sunlit
N/A
Visualization observer readout
Local Sidereal Time
04:32:41
Azimuth
Unknown
Elevation
Unknown
Doppler factor
Unknown
Orbital elements
Apogee altitude
652.138 km
Perigee altitude
639.975 km
Semi-major axis
7,024.194 km
Eccentricity
0.00087
Inclination
97.9579°
RAAN
85.9179°
Arg. of periapsis
341.1157°
True anomaly
19.00519°
Mean anomaly
18.9729°
Eccentric anomaly
18.98904°
Mean motion
3.68679 °/min
Orbital period
97.65 mins
BSTAR
0.00009562
Loading maneuver chart data...
Computing Atmospheric mass density...
Loading historical data...
Loading historical data...
Loading historical data...
Loading historical data...
Loading historical data...
Loading historical data...
Loading historical data...
Other satellites on launch #47 in the year 2025 (2025-03-12 UTC)

Documentation

Showing up to 5 results
|